K5TWC Weather Reports


time (UTC)temp
F
wind
direction
speed
knots
gust
knots
rain 1hr
in
rain 24hr
in
rain mn
in
humidity
%
barometer
mb
20260905104010 79 212 0.0 0.0 0.00 0.00 0.00 79 1014.3
20260905103514 79 212 0.0 0.0 0.00 0.00 0.00 79 1014.4
20260905103031 79 212 0.0 0.0 0.00 0.00 0.00 79 1014.4
20260905102513 79 212 0.0 0.0 0.00 0.00 0.00 78 1014.4
20260905102003 79 212 0.0 0.0 0.00 0.00 0.00 78 1014.4
20260905101505 79 212 0.0 0.9 0.00 0.00 0.00 78 1014.4
20260905101002 79 212 0.0 0.9 0.00 0.00 0.00 79 1014.3
20260905100504 79 212 0.0 0.0 0.00 0.00 0.00 79 1014.3
20260905100006 80 212 0.0 0.0 0.00 0.00 0.00 79 1014.2
20260905095503 79 212 0.0 0.0 0.00 0.00 0.00 80 1014.1
20260905095005 79 212 0.0 0.0 0.00 0.00 0.00 80 1014.1
20260905094504 79 212 0.0 0.0 0.00 0.00 0.00 80 1014.0
20260905094005 80 212 0.0 0.0 0.00 0.00 0.00 80 1014.1
20260905093504 80 212 0.0 0.0 0.00 0.00 0.00 79 1014.0
20260905093004 80 212 0.0 0.0 0.00 0.00 0.00 79 1014.1
20260905092503 80 212 0.0 0.0 0.00 0.00 0.00 79 1014.1
20260905092003 80 212 0.0 0.0 0.00 0.00 0.00 79 1014.0
20260905091505 80 212 0.0 0.0 0.00 0.00 0.00 79 1014.0
20260905091004 80 212 0.0 0.0 0.00 0.00 0.00 78 1013.9
20260905090503 80 212 0.0 0.0 0.00 0.00 0.00 78 1014.0
20260905090008 80 212 0.0 0.0 0.00 0.00 0.00 78 1013.9
20260905085506 81 212 0.0 0.0 0.00 0.00 0.00 78 1013.8
20260905085004 81 212 0.0 0.0 0.00 0.00 0.00 77 1013.7
20260905084504 81 212 0.0 0.0 0.00 0.00 0.00 77 1013.6
20260905084003 81 212 0.0 0.0 0.00 0.00 0.00 77 1013.6
20260905083507 81 212 0.0 0.0 0.00 0.00 0.00 77 1013.6
20260905083008 81 212 0.0 0.0 0.00 0.00 0.00 77 1013.6
20260905082503 81 212 0.0 1.7 0.00 0.00 0.00 76 1013.6
20260905082005 81 212 0.0 1.7 0.00 0.00 0.00 76 1013.6
20260905081505 82 212 0.0 0.0 0.00 0.00 0.00 76 1013.6
20260905081003 82 212 0.0 0.0 0.00 0.00 0.00 75 1013.6
20260905080508 82 212 0.0 0.0 0.00 0.00 0.00 75 1013.6
20260905080008 82 212 0.0 0.9 0.00 0.00 0.00 74 1013.6
20260905075504 82 212 0.0 0.9 0.00 0.00 0.00 74 1013.7
20260905075006 82 212 0.0 0.9 0.00 0.00 0.00 74 1013.6
20260905074507 82 212 0.0 0.9 0.00 0.00 0.00 74 1013.6
20260905074003 83 213 0.0 0.9 0.00 0.00 0.00 74 1013.7
20260905073504 83 215 0.0 1.7 0.00 0.00 0.00 74 1013.8
20260905073008 83 215 0.0 1.7 0.00 0.00 0.00 74 1013.8
20260905072504 83 215 0.0 0.0 0.00 0.00 0.00 74 1013.8
20260905072003 83 215 0.0 0.0 0.00 0.00 0.00 74 1013.9
20260905071507 83 215 0.0 0.0 0.00 0.00 0.00 74 1014.1
20260905071004 83 215 0.0 0.0 0.00 0.00 0.00 74 1014.2
20260905070507 83 215 0.0 0.0 0.00 0.00 0.00 73 1014.3
20260905070022 83 215 0.0 0.0 0.00 0.00 0.00 73 1014.3
20260905065503 83 215 0.0 0.0 0.00 0.00 0.00 73 1014.2
20260905065005 83 215 0.0 0.0 0.00 0.00 0.00 73 1014.3
20260905064525 83 215 0.0 0.0 0.00 0.00 0.00 72 1014.4
20260905064003 83 215 0.0 0.0 0.00 0.00 0.00 72 1014.4
20260905063504 83 215 0.0 0.0 0.00 0.00 0.00 72 1014.4
20260905063013 83 215 0.0 0.0 0.00 0.00 0.00 71 1014.4
20260905062506 84 215 0.0 0.0 0.00 0.00 0.00 71 1014.4
20260905062005 84 215 0.0 0.0 0.00 0.00 0.00 71 1014.3
20260905061506 84 215 0.0 0.0 0.00 0.00 0.00 71 1014.3
20260905061002 84 215 0.0 0.0 0.00 0.00 0.00 70 1014.2
20260905060504 84 215 0.0 0.0 0.00 0.00 0.00 70 1014.2
20260905060010 84 215 0.0 0.0 0.00 0.00 0.00 70 1014.2
20260905055503 84 215 0.0 0.0 0.00 0.00 0.00 69 1014.2
20260905055006 85 215 0.0 0.0 0.00 0.00 0.00 70 1014.1
20260905054510 85 215 0.0 0.0 0.00 0.00 0.00 69 1014.1
20260905054008 85 215 0.0 0.9 0.00 0.00 0.00 69 1014.1
20260905053504 85 215 0.0 1.7 0.00 0.00 0.00 69 1014.0
20260905053012 85 215 0.0 1.7 0.00 0.00 0.00 69 1013.9
20260905052505 85 215 0.0 0.9 0.00 0.00 0.00 68 1013.9
20260905052006 86 215 0.0 0.9 0.00 0.00 0.00 69 1013.8
20260905051518 86 215 0.0 0.9 0.00 0.00 0.00 68 1013.8
20260905051003 86 215 0.0 0.9 0.00 0.00 0.00 68 1013.8
20260905050503 86 215 0.0 0.9 0.00 0.00 0.00 68 1013.7
20260905050013 86 213 0.0 0.9 0.00 0.00 0.00 68 1013.7
20260905045503 86 213 0.0 0.9 0.00 0.00 0.00 67 1013.8
20260905045005 87 213 0.0 1.7 0.00 0.00 0.00 67 1013.9
20260905044510 87 211 0.0 1.7 0.00 0.00 0.00 66 1013.8
20260905044005 87 228 0.0 4.3 0.00 0.00 0.00 66 1013.9
20260905043503 87 213 0.0 4.3 0.00 0.00 0.00 66 1013.8
20260905043010 87 254 0.0 4.3 0.00 0.00 0.00 66 1013.8
20260905042505 87 207 0.0 1.7 0.00 0.00 0.00 66 1013.8
20260905042004 87 209 0.0 3.5 0.00 0.00 0.00 66 1013.8
20260905041514 87 214 0.0 4.3 0.00 0.00 0.00 66 1013.7
20260905041005 87 215 0.9 4.3 0.00 0.00 0.00 66 1013.7
20260905040503 87 194 0.0 2.6 0.00 0.00 0.00 67 1013.7
20260905040018 87 175 0.0 4.3 0.00 0.00 0.00 68 1013.7
20260905035504 87 174 0.0 4.3 0.00 0.00 0.00 68 1013.7
20260905035003 88 173 0.0 3.5 0.00 0.00 0.00 69 1013.8
20260905034523 88 167 0.0 3.5 0.00 0.00 0.00 68 1013.9
20260905034007 88 167 0.0 0.9 0.00 0.00 0.00 67 1013.9
20260905033504 88 167 0.0 1.7 0.00 0.00 0.00 66 1013.8
20260905033024 88 165 0.0 5.2 0.00 0.00 0.00 66 1013.8
20260905032508 88 164 0.0 5.2 0.00 0.00 0.00 65 1013.8
20260905032006 88 167 0.0 2.6 0.00 0.00 0.00 65 1013.7
20260905031510 88 168 0.0 2.6 0.00 0.00 0.00 64 1013.7
20260905031005 89 167 0.0 0.9 0.00 0.00 0.00 63 1013.7
20260905030506 89 167 0.0 2.6 0.00 0.00 0.00 62 1013.7
20260905030012 89 167 0.0 2.6 0.00 0.00 0.00 62 1013.6
20260905025507 89 167 0.0 0.0 0.00 0.00 0.00 62 1013.6
20260905025007 89 167 0.0 0.0 0.00 0.00 0.00 61 1013.5
20260905024515 89 167 0.0 0.9 0.00 0.00 0.00 61 1013.5
20260905024007 89 167 0.0 3.5 0.00 0.00 0.00 61 1013.5
20260905023506 90 167 0.0 3.5 0.00 0.00 0.00 60 1013.4
20260905023016 90 167 0.0 3.5 0.00 0.00 0.00 61 1013.3
20260905022506 90 164 0.0 3.5 0.00 0.00 0.00 60 1013.2
20260905022003 90 155 0.0 3.5 0.00 0.00 0.00 59 1013.2
20260905021510 90 156 0.0 4.3 0.00 0.00 0.00 59 1013.2
20260905021004 90 141 0.0 6.1 0.00 0.00 0.00 59 1013.1
20260905020502 91 167 0.0 6.1 0.00 0.00 0.00 59 1012.9
20260905020013 91 167 0.0 3.5 0.00 0.00 0.00 59 1012.9
20260905015504 91 163 0.0 4.3 0.00 0.00 0.00 59 1012.9
20260905015009 91 163 0.0 4.3 0.00 0.00 0.00 59 1012.8
20260905014515 91 166 0.0 5.2 0.00 0.00 0.00 59 1012.8
20260905014009 91 167 0.0 5.2 0.00 0.00 0.00 58 1012.7
20260905013512 92 168 0.0 6.1 0.00 0.00 0.00 58 1012.7
20260905013018 92 169 0.0 6.1 0.00 0.00 0.00 57 1012.5
20260905012508 92 157 0.9 6.1 0.00 0.00 0.00 57 1012.5
20260905012009 92 170 0.9 5.2 0.00 0.00 0.00 57 1012.5
20260905011517 92 175 0.0 5.2 0.00 0.00 0.00 56 1012.4
20260905011004 92 155 0.0 7.8 0.00 0.00 0.00 56 1012.3
20260905010503 93 155 0.9 8.7 0.00 0.00 0.00 55 1012.3
20260905010008 93 180 0.0 8.7 0.00 0.00 0.00 55 1012.3
20260905005503 93 174 0.9 7.0 0.00 0.00 0.00 56 1012.2
20260905005005 94 155 0.9 7.0 0.00 0.00 0.00 56 1012.2
20260905004515 94 163 0.0 7.8 0.00 0.00 0.00 56 1012.2
20260905004007 94 153 0.9 7.8 0.00 0.00 0.00 54 1012.1
20260905003509 94 160 1.7 7.8 0.00 0.00 0.00 54 1012.1
20260905003023 95 162 1.7 7.8 0.00 0.00 0.00 53 1012.1
20260905002508 95 144 2.6 7.8 0.00 0.00 0.00 53 1012.0
20260905002006 96 196 1.7 7.8 0.00 0.00 0.00 52 1011.9
20260905001518 96 146 1.7 7.8 0.00 0.00 0.00 50 1011.9
20260905001010 96 169 0.0 7.8 0.00 0.00 0.00 49 1011.8
20260905000508 97 150 0.9 7.8 0.00 0.00 0.00 48 1011.9
20260905000016 97 177 0.9 6.1 0.00 0.00 0.00 48 1011.8
20260904235503 97 189 0.0 7.8 0.00 0.00 0.00 47 1011.8
20260904235003 97 157 1.7 7.8 0.00 0.00 0.00 46 1011.8
20260904234509 97 172 0.0 7.8 0.00 0.00 0.00 46 1011.9
20260904234006 98 150 0.0 7.8 0.00 0.00 0.00 46 1011.8
20260904233503 98 151 1.7 7.8 0.00 0.00 0.00 46 1011.8
20260904233014 98 155 0.9 8.7 0.00 0.00 0.00 46 1011.7
20260904232508 98 166 0.9 8.7 0.00 0.00 0.00 46 1011.7
20260904232008 98 151 2.6 8.7 0.00 0.00 0.00 45 1011.7
20260904231520 98 150 2.6 8.7 0.00 0.00 0.00 46 1011.8
20260904231007 98 137 2.6 8.7 0.00 0.00 0.00 47 1011.8
20260904230510 98 136 0.9 7.0 0.00 0.00 0.00 47 1011.8
20260904230024 98 128 1.7 7.0 0.00 0.00 0.00 47 1011.8
20260904225508 98 165 1.7 7.8 0.00 0.00 0.00 47 1011.8
20260904225012 98 156 2.6 7.8 0.00 0.00 0.00 47 1011.9
20260904224524 98 156 0.9 6.1 0.00 0.00 0.00 46 1011.9
20260904224004 98 163 0.9 8.7 0.00 0.00 0.00 46 1011.9
20260904223504 98 164 2.6 8.7 0.00 0.00 0.00 47 1011.9
20260904223012 98 162 1.7 8.7 0.00 0.00 0.00 48 1012.0
20260904222506 97 133 2.6 8.7 0.00 0.00 0.00 48 1012.1
20260904222008 97 98 1.7 7.8 0.00 0.00 0.00 49 1012.0
20260904221534 97 138 1.7 7.8 0.00 0.00 0.00 49 1012.0
20260904221008 98 153 1.7 8.7 0.00 0.00 0.00 48 1012.0
20260904220511 98 150 2.6 8.7 0.00 0.00 0.00 48 1012.0
20260904220022 99 151 2.6 8.7 0.00 0.00 0.00 48 1012.1
20260904215511 99 187 3.5 8.7 0.00 0.00 0.00 47 1012.1
20260904215009 99 198 3.5 8.7 0.00 0.00 0.00 48 1012.2
20260904214525 99 142 2.6 8.7 0.00 0.00 0.00 47 1012.2
20260904214014 99 169 1.7 8.7 0.00 0.00 0.00 48 1012.2
20260904213510 99 183 0.9 9.6 0.00 0.00 0.00 49 1012.2
20260904213023 99 161 0.9 9.6 0.00 0.00 0.00 48 1012.2
20260904212505 99 109 1.7 8.7 0.00 0.00 0.00 48 1012.3
20260904212004 99 188 0.9 6.1 0.00 0.00 0.00 48 1012.3
20260904211512 100 155 1.7 7.8 0.00 0.00 0.00 48 1012.4
20260904211006 99 124 0.0 8.7 0.00 0.00 0.00 48 1012.4
20260904210508 100 173 1.7 9.6 0.00 0.00 0.00 48 1012.6
20260904210023 100 123 3.5 9.6 0.00 0.00 0.00 47 1012.5
20260904205510 100 199 0.0 11.3 0.00 0.00 0.00 47 1012.6
20260904205012 99 166 1.7 11.3 0.00 0.00 0.00 48 1012.7
20260904204528 99 158 2.6 7.8 0.00 0.00 0.00 48 1012.7
20260904204011 99 231 1.7 7.8 0.00 0.00 0.00 48 1012.7
20260904203510 99 141 2.6 9.6 0.00 0.00 0.00 48 1012.9
20260904203031 99 159 0.0 9.6 0.00 0.00 0.00 48 1013.0
20260904202503 99 193 0.0 9.6 0.00 0.00 0.00 48 1013.0
20260904202004 99 163 2.6 9.6 0.00 0.00 0.00 47 1013.1
20260904201520 99 258 1.7 9.6 0.00 0.00 0.00 48 1013.2
20260904201005 99 172 3.5 9.6 0.00 0.00 0.00 47 1013.3
20260904200507 100 151 5.2 9.6 0.00 0.00 0.00 47 1013.4
20260904200018 100 231 2.6 7.8 0.00 0.00 0.00 47 1013.4
20260904195507 99 140 0.9 7.8 0.00 0.00 0.00 47 1013.5
20260904195008 99 136 0.9 7.8 0.00 0.00 0.00 47 1013.5
20260904194552 99 144 0.9 7.8 0.00 0.00 0.00 48 1013.7
20260904194012 98 139 1.7 7.8 0.00 0.00 0.00 48 1013.7
20260904193512 98 141 0.9 8.7 0.00 0.00 0.00 49 1013.8
20260904193037 98 144 2.6 8.7 0.00 0.00 0.00 50 1013.8
20260904192502 98 153 3.5 8.7 0.00 0.00 0.00 50 1013.8
20260904192005 98 169 2.6 8.7 0.00 0.00 0.00 49 1013.9
20260904191507 98 284 0.9 7.8 0.00 0.00 0.00 50 1013.9
20260904191003 97 194 2.6 8.7 0.00 0.00 0.00 50 1013.9
20260904190503 97 203 2.6 10.4 0.00 0.00 0.00 51 1014.0
20260904190011 98 159 3.5 10.4 0.00 0.00 0.00 50 1014.0
20260904185506 98 155 2.6 10.4 0.00 0.00 0.00 49 1014.1
20260904185008 97 164 0.0 9.6 0.00 0.00 0.00 50 1014.2
20260904184521 97 202 0.0 9.6 0.00 0.00 0.00 52 1014.2
20260904184009 97 193 3.5 8.7 0.00 0.00 0.00 51 1014.2
20260904183510 97 168 0.9 7.8 0.00 0.00 0.00 53 1014.4
20260904183023 96 195 0.0 8.7 0.00 0.00 0.00 54 1014.5
20260904182513 96 147 2.6 8.7 0.00 0.00 0.00 53 1014.6
20260904182016 96 157 0.0 10.4 0.00 0.00 0.00 54 1014.7
20260904181527 95 184 0.0 10.4 0.00 0.00 0.00 54 1014.8
20260904181003 95 184 1.7 11.3 0.00 0.00 0.00 55 1014.9
20260904180503 95 128 4.3 11.3 0.00 0.00 0.00 55 1015.0
20260904180008 95 159 0.9 8.7 0.00 0.00 0.00 55 1015.1
20260904175503 95 123 2.6 8.7 0.00 0.00 0.00 55 1015.1
20260904175003 95 138 1.7 7.8 0.00 0.00 0.00 55 1015.1
20260904174516 96 152 2.6 7.8 0.00 0.00 0.00 55 1015.2
20260904174007 95 161 2.6 8.7 0.00 0.00 0.00 55 1015.2
20260904173509 95 112 3.5 9.6 0.00 0.00 0.00 55 1015.3
20260904173027 95 150 2.6 9.6 0.00 0.00 0.00 56 1015.4
20260904172511 94 178 1.7 7.8 0.00 0.00 0.00 59 1015.5
20260904172012 94 153 1.7 7.8 0.00 0.00 0.00 60 1015.5
20260904171538 93 143 2.6 8.7 0.00 0.00 0.00 60 1015.6
20260904171011 93 189 2.6 10.4 0.00 0.00 0.00 60 1015.6
20260904170513 93 146 5.2 10.4 0.00 0.00 0.00 62 1015.6
20260904170031 92 161 1.7 9.6 0.00 0.00 0.00 62 1015.6
20260904165505 92 145 5.2 9.6 0.00 0.00 0.00 63 1015.6
20260904165004 92 138 2.6 8.7 0.00 0.00 0.00 64 1015.6
20260904164510 92 140 3.5 9.6 0.00 0.00 0.00 64 1015.7
20260904164003 92 165 3.5 9.6 0.00 0.00 0.00 65 1015.7
20260904163504 92 155 3.5 9.6 0.00 0.00 0.00 65 1015.8
20260904163015 93 164 3.5 8.7 0.00 0.00 0.00 64 1015.8
20260904162506 93 206 1.7 10.4 0.00 0.00 0.00 64 1015.8
20260904162012 93 143 4.3 10.4 0.00 0.00 0.00 64 1015.7
20260904161527 92 126 0.0 7.0 0.00 0.00 0.00 66 1015.7
20260904161011 91 194 0.0 8.7 0.00 0.00 0.00 67 1015.8
20260904160510 91 186 0.0 8.7 0.00 0.00 0.00 67 1015.8
20260904160030 91 192 0.9 7.8 0.00 0.00 0.00 69 1015.8
20260904155512 91 209 0.9 7.8 0.00 0.00 0.00 69 1015.9
20260904155014 90 182 1.7 10.4 0.00 0.00 0.00 71 1015.8
20260904154530 90 138 0.9 10.4 0.00 0.00 0.00 71 1015.8
20260904154003 90 184 0.9 7.0 0.00 0.00 0.00 70 1015.8
20260904153503 90 178 0.9 4.3 0.00 0.00 0.00 70 1015.8
20260904153021 90 198 0.0 7.8 0.00 0.00 0.00 69 1015.6
20260904152503 90 153 2.6 7.8 0.00 0.00 0.00 69 1015.6
20260904152008 90 196 0.9 7.0 0.00 0.00 0.00 70 1015.6
20260904151533 89 205 0.9 7.0 0.00 0.00 0.00 70 1015.5
20260904151010 89 187 0.0 7.0 0.00 0.00 0.00 72 1015.5
20260904150512 89 171 0.0 5.2 0.00 0.00 0.00 73 1015.5
20260904150028 88 165 0.9 8.7 0.00 0.00 0.00 74 1015.5
20260904145513 88 127 0.0 8.7 0.00 0.00 0.00 76 1015.5
20260904145012 87 158 1.7 8.7 0.00 0.00 0.00 76 1015.5
20260904144526 87 150 0.9 7.0 0.00 0.00 0.00 77 1015.5
20260904144014 87 181 0.9 7.0 0.00 0.00 0.00 77 1015.5
20260904143515 87 207 1.7 4.3 0.00 0.00 0.00 78 1015.5
20260904143033 86 196 0.0 4.3 0.00 0.00 0.00 79 1015.6
20260904142503 86 238 0.0 7.0 0.00 0.00 0.00 80 1015.6
20260904142005 85 185 0.9 7.0 0.00 0.00 0.00 80 1015.5
20260904141515 85 190 0.9 6.1 0.00 0.00 0.00 81 1015.5
20260904141010 84 204 0.0 8.7 0.00 0.00 0.00 83 1015.5
20260904140509 84 157 0.9 8.7 0.00 0.00 0.00 84 1015.5
20260904140023 83 152 0.9 8.7 0.00 0.00 0.00 84 1015.5
20260904135515 83 184 1.7 8.7 0.00 0.00 0.00 85 1015.5
20260904135011 82 191 1.7 7.8 0.00 0.00 0.00 86 1015.4
20260904134526 82 160 2.6 7.8 0.00 0.00 0.00 87 1015.3
20260904134011 81 194 2.6 7.8 0.00 0.00 0.00 88 1015.3
20260904133515 80 173 0.9 7.8 0.00 0.00 0.00 89 1015.3
20260904133030 80 194 0.9 7.8 0.00 0.00 0.00 90 1015.3
20260904132516 79 167 1.7 7.8 0.00 0.00 0.00 90 1015.2
20260904132014 79 169 2.6 7.8 0.00 0.00 0.00 90 1015.2
20260904131531 79 189 2.6 7.0 0.00 0.00 0.00 91 1015.1
20260904131004 79 203 1.7 7.0 0.00 0.00 0.00 91 1015.1
20260904130506 79 147 0.9 7.0 0.00 0.00 0.00 91 1015.1
20260904130016 79 166 0.9 7.8 0.00 0.00 0.00 91 1015.0
20260904125508 78 188 0.9 7.8 0.00 0.00 0.00 91 1015.0
20260904125010 78 165 1.7 8.7 0.00 0.00 0.00 91 1014.9
20260904124524 78 157 0.0 8.7 0.00 0.00 0.00 91 1015.0
20260904124010 78 168 0.9 7.8 0.00 0.00 0.00 92 1015.0
20260904123515 78 147 1.7 6.1 0.00 0.00 0.00 92 1014.9
20260904123027 78 182 0.0 6.1 0.00 0.00 0.00 92 1014.9
20260904122518 78 152 0.0 6.1 0.00 0.00 0.00 92 1014.9
20260904122015 78 182 0.0 6.1 0.00 0.01 0.00 92 1014.9
20260904121535 78 192 1.7 8.7 0.00 0.01 0.00 92 1014.9
20260904121016 78 186 0.9 8.7 0.00 0.01 0.00 92 1014.9
20260904120518 78 189 0.0 3.5 0.00 0.02 0.00 92 1014.9
20260904120037 78 188 0.0 5.2 0.00 0.03 0.00 92 1014.8
20260904115507 78 169 0.0 5.2 0.00 0.04 0.00 92 1014.8
20260904115006 78 172 0.9 5.2 0.00 0.04 0.00 92 1014.7
20260904114520 77 167 0.0 5.2 0.00 0.04 0.00 91 1014.6
20260904114013 77 180 0.0 5.2 0.00 0.04 0.00 91 1014.5
20260904113512 77 188 0.9 8.7 0.00 0.04 0.00 91 1014.6
20260904113033 77 205 1.7 8.7 0.00 0.04 0.00 91 1014.5
20260904112517 77 182 0.0 7.0 0.00 0.04 0.00 91 1014.5
20260904112013 77 173 0.0 5.2 0.00 0.04 0.00 91 1014.4
20260904111529 77 159 0.0 5.2 0.00 0.04 0.00 91 1014.4
20260904111022 77 173 0.0 5.2 0.00 0.04 0.00 90 1014.3
20260904110516 77 186 0.0 6.1 0.00 0.04 0.00 90 1014.3
20260904110031 77 169 0.9 6.1 0.00 0.04 0.00 90 1014.3
20260904105517 77 184 0.0 6.1 0.00 0.04 0.00 90 1014.3
20260904105014 77 180 1.7 6.1 0.00 0.04 0.00 90 1014.3
20260904104531 77 157 1.7 5.2 0.00 0.04 0.00 89 1014.2